Regional Weather Roundup
Issued by NWS Upton, NY

Current Version | Previous Version | Graphics & Text | Print | Product List | Glossary Off
Versions: 1 2 3 4 5 6 7 8 9 10 11 12 13 14 15 16 17 18 19 20 21 22 23 24 25 26 27 28

000
ASUS41 KOKX 201505
RWROKX

REGIONAL WEATHER ROUNDUP
NATIONAL WEATHER SERVICE NEW YORK NY
1100 AM EDT SUN APR 20 2014

NOTE: "FAIR" INDICATES FEW OR NO CLOUDS BELOW 12,000 FEET WITH NO
SIGNIFICANT WEATHER AND/OR OBSTRUCTIONS TO VISIBILITY.

NYZ071-072-176-178-NJZ106-104-201600-
NEW YORK CITY METRO AREA


CITY           SKY/WX    TMP DP  RH WIND       PRES   REMARKS
CENTRAL PARK   SUNNY     53  26  35 NE8       30.52S
LAGUARDIA APRT PTSUNNY   51  26  37 NE10      30.50R
KENNEDY INTL   PTSUNNY   52  22  30 E17       30.51R
NEWARK/LIBERTY PTSUNNY   53  26  35 SE8       30.49S
TETERBORO      SUNNY     54  24  31 E9        30.49S
$$

NYZ177-179-078>081-201600-
LONG ISLAND NEW YORK

CITY           SKY/WX    TMP DP  RH WIND       PRES   REMARKS
FARMINGDALE    MOSUNNY   51  26  37 SE12      30.49S
ISLIP          PTSUNNY   52  23  32 SE14G22   30.47S
SHIRLEY        MOSUNNY   51  22  31 SE13G21   30.50S
WESTHAMPTON    MOSUNNY   51  20  29 E16G25    30.51R
MONTAUK POINT    N/A     49  31  49 NE9       30.52S
$$

NYZ052-065-067-201600-
HUDSON VALLEY

CITY           SKY/WX    TMP DP  RH WIND       PRES   REMARKS
WHITE PLAINS   SUNNY     49  19  30 E13G20    30.49R
NEWBURGH       MOSUNNY   52  25  35 E9        30.49F
MONTGOMERY     SUNNY     53  23  31 VRB7      30.48S
POUGHKEEPSIE   SUNNY     54  23  30 NE5       30.48F
ALBANY         MOSUNNY   50  22  33 VRB5      30.49F
$$

NJZ001-105-106-008-010-013-015-019>022-104-201600-
NEW JERSEY

CITY           SKY/WX    TMP DP  RH WIND       PRES   REMARKS
NEWARK/LIBERTY PTSUNNY   53  26  35 SE8       30.49S
TETERBORO      SUNNY     54  24  31 E9        30.49S
CALDWELL       MOSUNNY   52  27  38 SE8       30.50R
MORRISTOWN     MOSUNNY   54  25  32 E12G20    30.50S
SOMERVILLE     SUNNY     55  27  34 SE13G22   30.47S
LINDEN         FAIR      53  26  34 SE13      30.52S
SUSSEX         SUNNY     54  26  34 CALM      30.48R
ANDOVER          N/A     53  26  35 VRB6      30.48R
TRENTON        MOSUNNY   54  27  35 E12G21    30.47S
MILLVILLE      CLOUDY    54  32  43 E18       30.45R
ATLANTIC CITY  CLOUDY    52  34  50 E20G28    30.46R
WRIGHTSTOWN    PTSUNNY   50  27  40 E15G23    30.46S
TOMS RIVER     CLOUDY    45  28  53 E7G17     30.49S
BELMAR         PTSUNNY   46  28  49 E13G20    30.49S
$$

PAZ047>061-062-071-201600-
EASTERN PENNSYLVANIA

CITY           SKY/WX    TMP DP  RH WIND       PRES   REMARKS
PHILADELPHIA   PTSUNNY   54  30  40 E13       30.48S
ALLENTOWN      LGT RAIN  55  33  43 E12       30.46S
SCRANTON       SUNNY     55  27  34 CALM      30.42F
$$

CTZ002-004>006-009-010-012-RIZ004-006-007-MAZ004-011-015-201600-
SOUTHERN NEW ENGLAND
 IN CT

CITY           SKY/WX    TMP DP  RH WIND       PRES   REMARKS
BRADLEY INTL   MOSUNNY   52  18  26 VRB3      30.49F
HARTFORD       MOSUNNY   52  19  27 NE5       30.50F
DANBURY        SUNNY     50  22  33 MISG      30.50R
WTRBRY/OXFORD  SUNNY     48  23  37 E7        30.52R
BRIDGEPORT     MOSUNNY   50  26  39 SE16      30.51R
MERIDEN        SUNNY     52  21  29 VRB7      30.50S
NEW HAVEN      PTSUNNY   51  26  37 SE12      30.50R
CHESTER        FAIR      50  18  27 NE10      30.49S
GROTON         MOSUNNY   50  26  39 SE13      30.49F
WILLIMANTIC    MOSUNNY   51  14  22 VRB5      30.50S

 IN RI

CITY           SKY/WX    TMP DP  RH WIND       PRES   REMARKS
PROVIDENCE     MOSUNNY   51  19  28 NE8G16    30.51S
BLOCK ISLAND   MOSUNNY   46  34  61 NE12      30.51S
WESTERLY       MOSUNNY   50  27  40 E16       30.50S

 IN MA

CITY           SKY/WX    TMP DP  RH WIND       PRES   REMARKS
BOSTON         MOSUNNY   46  28  49 E12       30.54R
WORCESTER      SUNNY     47  12  24 NE8       30.48S
WESTFIELD      SUNNY     51  18  27 CALM      30.49F
PROVINCETOWN   SUNNY     46  30  53 MISG      30.53R
NANTUCKET      MOSUNNY   48  29  47 NE13G22   30.49R
$$

ANZ330-335-338-340-345-350-353-355-201600-
COASTAL MARINE OBSERVATIONS


STATION/POSITION TIME  SKY/WX   TEMP    WIND        PRES    VSBY  WAVE
                                AIR SEA DIR/SP/G                  HT/PER
                 (UTC)          (F)     (DEG/KT/KT) (MB)    (MI)  (FT/S)
NY HARB ENTRANCE 1500            45 44  290/ 12/ 14 1032.5
4S FIRE IS       1400               44                N/A           3/ 9
23SW MTP         1500            43 42   50/ 12/ 14 1032.3          3/ 8
HUDSON CANYON    1400            45 44   70/ 21/ 25 1029.8          6/ 5
EXECUTION ROCKS  1500            47 44   60/ 12/ 16   N/A
WESTERN LI SOUND 1500            45      80/ 10/ 12   N/A           2/ 3
CENTRAL LI SOUND 1400            44 42  120/ 10/ 12   N/A           1
EASTERN LI SOUND NOT AVBL
ROBBINS REEF     1500            48     130/  9/ 11   N/A
$$


>>>>>>>>>>>>>>>>>>>>>>>>>>>> KEY <<<<<<<<<<<<<<<<<<<<<<<<<<<
>                                                          <
>     SKY/WX - SKY CONDITION/PRESENT WEATHER               <
>     TMP    - TEMPERATURE IN FAHRENHEIT                   <
>     DP     - DEWPOINT IN FAHRENHEIT                      <
>     RH     - RELATIVE HUMIDITY IN PERCENT                <
>     WIND   - DIRECTION AND SPEED IN MPH                  <
>     PRES   - MEAN SEA LEVEL PRESSURE IN INCHES OF HG     <
>     WCI    - WIND CHILL INDEX                            <
>     VSB    - VISIBILITY IN MILES                         <
>     HX     - HEAT INDEX                                  <
>     TC     - TEMPERATURE IN CELSIUS                      <
>     VRB    - VARIABLE WIND DIRECTION                     <
>                                                          <
>>>>>>>>>>>>>>>>>>>>>>>>>>>> KEY <<<<<<<<<<<<<<<<<<<<<<<<<<<





USA.gov is the U.S. government's official web portal to all federal, state and local government web resources and services.